This demonstration page uses our WeatherBlox Daily Observations layout. Learn more.

Left ArrowRight Arrow

Hourly Observations for November 3, 2020

Temp ( °F °C ) Dew Point ( °F °C ) Humidity (%) Winds ( mph kmh ) Pressure ( in mb ) Visibility ( mi km ) Precip ( " mm )
12:52 am 00:52 Clear 42 5.6 32 0 68 68 SSE 8 13 30.11 1020 10 16 0.00 0.00
1:52 am 01:52 Clear 40 4.4 32 0 73 73 SSE 9 15 30.10 1019 10 16 0.00 0.00
2:52 am 02:52 Clear 43 6.1 33 0.6 68 68 SSE 8 13 30.08 1019 10 16 0.00 0.00
3:52 am 03:52 Clear 39 3.9 32 0 76 76 SSE 7 11 30.06 1018 10 16 0.00 0.00
4:52 am 04:52 Clear 39 3.9 33 0.6 79 79 SSE 9 15 30.05 1018 10 16 0.00 0.00
5:52 am 05:52 Clear 39 3.9 34 1.1 82 82 SSE 13 20 30.04 1017 10 16 0.00 0.00
6:52 am 06:52 Clear 40 4.4 35 1.7 83 83 SSE 10 17 30.02 1017 10 16 0.00 0.00
7:52 am 07:52 Sunny 42 5.6 37 2.8 82 82 SSE 9 15 30.03 1017 10 16 0.00 0.00
8:52 am 08:52 Sunny 48 8.9 40 4.4 74 74 SSE 10 17 30.04 1017 10 16 0.00 0.00
9:52 am 09:52 Sunny 53 11.7 40 4.4 61 61 S 8 13 30.03 1017 10 16 0.00 0.00
10:52 am 10:52 Sunny 61 16.1 42 5.6 50 50 S 8 13 30.00 1016 10 16 0.00 0.00
11:52 am 11:52 Sunny 68 20 42 5.6 39 39 SSE 9 15 29.97 1015 10 16 0.00 0.00
12:52 pm 12:52 Sunny 76 24.4 39 3.9 26 26 S 14 22 29.93 1014 10 16 0.00 0.00
1:52 pm 13:52 Sunny 79 26.1 39 3.9 24 24 S 13 20 29.91 1013 10 16 0.00 0.00
2:52 pm 14:52 Sunny 80 26.7 39 3.9 23 23 SSW 15 24 29.89 1012 10 16 0.00 0.00
3:52 pm 15:52 Sunny 80 26.7 38 3.3 22 22 S 14 22 29.88 1012 10 16 0.00 0.00
4:52 pm 16:52 Sunny 75 23.9 38 3.3 26 26 S 9 15 29.88 1012 10 16 0.00 0.00
5:52 pm 17:52 Clear 66 18.9 38 3.3 36 36 SSE 12 19 29.89 1012 10 16 0.00 0.00
6:52 pm 18:52 Clear 65 18.3 38 3.3 37 37 SSE 9 15 29.91 1013 10 16 0.00 0.00
7:52 pm 19:52 Clear 59 15 38 3.3 46 46 SSE 10 17 29.93 1014 10 16 0.00 0.00
8:52 pm 20:52 Clear 55 12.8 38 3.3 53 53 SSE 10 17 29.93 1014 10 16 0.00 0.00
9:52 pm 21:52 Clear 55 12.8 38 3.3 53 53 SE 10 17 29.94 1014 10 16 0.00 0.00
10:52 pm 22:52 Clear 51 10.6 39 3.9 64 64 SE 12 19 29.95 1014 10 16 0.00 0.00
11:52 pm 23:52 Clear 49 9.4 39 3.9 69 69 SE 9 15 29.94 1014 10 16 0.00 0.00

Powered by AerisWeather